Location: Beaurecueil
(43.5122°N, 5.5450°E)
Time: 21:02:04
(UTC+00:00)

Cosmos 1025 Rocket - Pass Details

Date: 18 September 2020
Orbit: 595 x 617 km, 82.5° (Epoch: 27 October)

Event Time Altitude Azimuth Distance (km) Brightness Sun altitude
Rises 18:46:48 0° 358° (N) 2,885 6.7 -12.5°
Reaches altitude 10° 18:49:09 10° 7° (N) 1,979 5.8 -12.9°
Maximum altitude 18:53:16 39° 76° (ENE) 923 3.5 -13.6°
Enters shadow 18:56:08 18° 138° (SE) 1,530 4.6 -14.1°
